When you browse on this site, cookies collect data to enhance your experience and personalize the content and advertising you see.
Visit our Privacy Policy to learn more. By continuing to use the site, you agree to this use of cookies and data.
  • In Lithuania
  • List of Countries
  • For 7 days
  • Water Temperature
  • Weather Map
  • Weather Widgets
  • user-avatar
    Login

    Hourly Weather Tibissa

    Today, 22 August, Thursday

    Time Temperature Precipitation Wind Pressure Humidity
    00:00 +26°C° 0 mm 3 mps 688 mmHg 65%
    01:00 +25°C° 0 mm 2 mps 688 mmHg 69%
    02:00 +25°C° 0 mm 2 mps 687 mmHg 70%
    03:00 +25°C° 0 mm 1 mps 687 mmHg 70%
    04:00 +24°C° 0 mm 1 mps 686 mmHg 71%
    05:00 +25°C° 0 mm 1 mps 687 mmHg 68%
    06:00 +25°C° 0 mm 1 mps 687 mmHg 65%
    07:00 +26°C° 0 mm 1 mps 687 mmHg 61%
    08:00 +27°C° 0 mm 1 mps 688 mmHg 53%
    09:00 +29°C° 0 mm 1 mps 688 mmHg 46%
    10:00 +31°C° 0 mm 1 mps 689 mmHg 38%
    11:00 +32°C° 0 mm 2 mps 689 mmHg 34%
    12:00 +35°C° 0 mm 2 mps 689 mmHg 31%
    13:00 +36°C° 0 mm 3 mps 689 mmHg 28%
    14:00 +35°C° 0.3 mm 3 mps 688 mmHg 30%
    15:00 +35°C° 0.3 mm 4 mps 688 mmHg 33%
    16:00 +34°C° 0.3 mm 5 mps 687 mmHg 35%
    17:00 +30°C° 2.5 mm 4 mps 687 mmHg 44%
    18:00 +28°C° 2.5 mm 4 mps 687 mmHg 52%
    19:00 +25°C° 2.5 mm 3 mps 687 mmHg 60%
    20:00 +26°C° 0.4 mm 3 mps 687 mmHg 57%
    21:00 +26°C° 0.4 mm 2 mps 688 mmHg 54%
    22:00 +27°C° 0.4 mm 1 mps 688 mmHg 51%
    23:00 +26°C° 0.1 mm 1 mps 688 mmHg 53%

    Tomorrow, 23 August, Friday

    Time Temperature Precipitation Wind Pressure Humidity
    00:00 +26°C° 0.1 mm 1 mps 688 mmHg 54%
    01:00 +24°C° 0.1 mm 0 mps 688 mmHg 55%
    02:00 +25°C° 0.2 mm 1 mps 688 mmHg 59%
    03:00 +25°C° 0.2 mm 1 mps 687 mmHg 62%
    04:00 +24°C° 0.2 mm 1 mps 687 mmHg 65%
    05:00 +24°C° 0.2 mm 1 mps 687 mmHg 65%
    06:00 +24°C° 0.2 mm 1 mps 687 mmHg 65%
    07:00 +24°C° 0.2 mm 1 mps 687 mmHg 66%
    08:00 +26°C° 0 mm 1 mps 688 mmHg 59%
    09:00 +27°C° 0 mm 1 mps 689 mmHg 53%
    10:00 +28°C° 0 mm 1 mps 689 mmHg 47%
    11:00 +29°C° 0 mm 1 mps 689 mmHg 44%
    12:00 +30°C° 0 mm 1 mps 689 mmHg 41%
    13:00 +31°C° 0 mm 2 mps 688 mmHg 38%
    14:00 +30°C° 0.2 mm 2 mps 688 mmHg 41%
    15:00 +29°C° 0.2 mm 3 mps 687 mmHg 44%
    16:00 +29°C° 0.2 mm 4 mps 687 mmHg 48%
    17:00 +28°C° 0.7 mm 3 mps 687 mmHg 51%
    18:00 +27°C° 0.7 mm 2 mps 687 mmHg 55%
    19:00 +26°C° 0.7 mm 2 mps 687 mmHg 59%
    20:00 +26°C° 0.2 mm 2 mps 687 mmHg 58%
    21:00 +26°C° 0.2 mm 2 mps 687 mmHg 57%
    22:00 +26°C° 0.2 mm 2 mps 687 mmHg 56%
    23:00 +26°C° 0.1 mm 1 mps 687 mmHg 57%

    Day after tomorrow, 24 August, Saturday

    Time Temperature Precipitation Wind Pressure Humidity
    00:00 +26°C° 0.1 mm 1 mps 687 mmHg 57%
    01:00 +26°C° 0.1 mm 1 mps 687 mmHg 58%
    02:00 +25°C° 0 mm 1 mps 687 mmHg 59%
    03:00 +25°C° 0 mm 1 mps 687 mmHg 60%
    04:00 +25°C° 0 mm 1 mps 687 mmHg 61%
    05:00 +25°C° 0 mm 1 mps 687 mmHg 59%
    06:00 +25°C° 0 mm 1 mps 687 mmHg 57%
    07:00 +25°C° 0 mm 1 mps 687 mmHg 55%
    08:00 +26°C° 0 mm 2 mps 687 mmHg 50%
    09:00 +27°C° 0 mm 2 mps 688 mmHg 45%
    10:00 +28°C° 0 mm 2 mps 688 mmHg 40%
    11:00 +29°C° 0 mm 2 mps 688 mmHg 38%
    12:00 +29°C° 0 mm 2 mps 688 mmHg 37%
    13:00 +30°C° 0 mm 2 mps 688 mmHg 35%
    14:00 +30°C° 0 mm 3 mps 687 mmHg 35%
    15:00 +30°C° 0 mm 3 mps 687 mmHg 35%
    16:00 +31°C° 0 mm 3 mps 687 mmHg 35%
    17:00 +29°C° 0.2 mm 3 mps 687 mmHg 44%
    18:00 +27°C° 0.2 mm 3 mps 686 mmHg 53%
    19:00 +25°C° 0.2 mm 3 mps 686 mmHg 62%
    20:00 +25°C° 0.3 mm 3 mps 686 mmHg 64%
    21:00 +24°C° 0.3 mm 3 mps 687 mmHg 67%
    22:00 +24°C° 0.3 mm 2 mps 687 mmHg 69%
    23:00 +24°C° 0 mm 2 mps 687 mmHg 68%

    25 August, Sunday

    Time Temperature Precipitation Wind Pressure Humidity
    00:00 +24°C° 0 mm 2 mps 686 mmHg 66%
    01:00 +24°C° 0 mm 2 mps 686 mmHg 65%
    02:00 +24°C° 0 mm 2 mps 686 mmHg 65%
    03:00 +24°C° 0 mm 2 mps 686 mmHg 65%
    04:00 +24°C° 0 mm 1 mps 686 mmHg 64%
    05:00 +24°C° 0 mm 1 mps 686 mmHg 64%
    06:00 +24°C° 0 mm 1 mps 686 mmHg 63%
    07:00 +24°C° 0 mm 1 mps 686 mmHg 63%
    08:00 +25°C° 0 mm 2 mps 687 mmHg 55%
    09:00 +27°C° 0 mm 3 mps 687 mmHg 48%
    10:00 +28°C° 0 mm 3 mps 688 mmHg 40%
    11:00 +29°C° 0 mm 3 mps 687 mmHg 37%
    12:00 +30°C° 0 mm 3 mps 687 mmHg 33%
    13:00 +31°C° 0 mm 3 mps 687 mmHg 30%
    14:00 +31°C° 0 mm 3 mps 687 mmHg 29%
    15:00 +31°C° 0 mm 2 mps 686 mmHg 29%
    16:00 +31°C° 0 mm 2 mps 686 mmHg 28%
    17:00 +31°C° 0 mm 2 mps 686 mmHg 30%
    18:00 +30°C° 0 mm 2 mps 686 mmHg 31%
    19:00 +30°C° 0 mm 3 mps 686 mmHg 32%
    20:00 +29°C° 0 mm 4 mps 686 mmHg 36%
    21:00 +28°C° 0 mm 5 mps 686 mmHg 40%
    22:00 +27°C° 0 mm 6 mps 686 mmHg 45%
    23:00 +26°C° 0 mm 5 mps 686 mmHg 47%

    26 August, Monday

    Time Temperature Precipitation Wind Pressure Humidity
    00:00 +26°C° 0 mm 4 mps 686 mmHg 50%
    01:00 +25°C° 0 mm 2 mps 686 mmHg 53%
    02:00 +25°C° 0 mm 2 mps 685 mmHg 53%
    03:00 +24°C° 0 mm 2 mps 685 mmHg 53%
    04:00 +24°C° 0 mm 2 mps 685 mmHg 52%
    05:00 +24°C° 0 mm 2 mps 685 mmHg 50%
    06:00 +24°C° 0 mm 2 mps 685 mmHg 48%
    07:00 +25°C° 0 mm 2 mps 686 mmHg 46%
    08:00 +26°C° 0 mm 3 mps 686 mmHg 41%
    09:00 +28°C° 0 mm 3 mps 687 mmHg 37%
    10:00 +30°C° 0 mm 4 mps 687 mmHg 32%
    11:00 +32°C° 0 mm 4 mps 687 mmHg 30%
    12:00 +31°C° 0 mm 3 mps 687 mmHg 28%
    13:00 +33°C° 0 mm 3 mps 687 mmHg 25%
    14:00 +34°C° 0 mm 2 mps 686 mmHg 24%
    15:00 +34°C° 0 mm 2 mps 686 mmHg 23%
    16:00 +33°C° 0 mm 1 mps 686 mmHg 22%
    17:00 +33°C° 0 mm 1 mps 685 mmHg 23%
    18:00 +33°C° 0 mm 1 mps 685 mmHg 25%
    19:00 +32°C° 0 mm 1 mps 685 mmHg 27%
    20:00 +31°C° 0 mm 2 mps 686 mmHg 30%
    21:00 +30°C° 0 mm 2 mps 686 mmHg 33%
    22:00 +29°C° 0 mm 3 mps 687 mmHg 36%
    23:00 +28°C° 0 mm 2 mps 687 mmHg 39%

    27 August, Tuesday

    Time Temperature Precipitation Wind Pressure Humidity
    00:00 +28°C° 0 mm 2 mps 687 mmHg 41%
    01:00 +27°C° 0 mm 1 mps 687 mmHg 43%
    02:00 +27°C° 0 mm 1 mps 686 mmHg 45%
    03:00 +26°C° 0 mm 1 mps 686 mmHg 47%
    04:00 +26°C° 0 mm 1 mps 686 mmHg 48%
    05:00 +26°C° 0 mm 1 mps 686 mmHg 47%
    06:00 +26°C° 0 mm 1 mps 686 mmHg 46%
    07:00 +26°C° 0 mm 1 mps 686 mmHg 44%
    08:00 +28°C° 0 mm 2 mps 686 mmHg 39%
    09:00 +29°C° 0 mm 3 mps 687 mmHg 34%
    10:00 +32°C° 0 mm 5 mps 687 mmHg 29%
    11:00 +32°C° 0 mm 5 mps 687 mmHg 28%
    12:00 +33°C° 0 mm 5 mps 687 mmHg 27%
    13:00 +34°C° 0 mm 5 mps 687 mmHg 25%
    14:00 +34°C° 0 mm 5 mps 687 mmHg 26%
    15:00 +34°C° 0 mm 6 mps 686 mmHg 26%
    16:00 +34°C° 0 mm 6 mps 686 mmHg 27%
    17:00 +32°C° 0.2 mm 5 mps 686 mmHg 32%
    18:00 +29°C° 0.2 mm 4 mps 686 mmHg 38%
    19:00 +28°C° 0.2 mm 3 mps 686 mmHg 43%
    20:00 +27°C° 0 mm 3 mps 686 mmHg 49%
    21:00 +25°C° 0 mm 3 mps 687 mmHg 55%
    22:00 +24°C° 0 mm 3 mps 687 mmHg 61%
    23:00 +24°C° 0 mm 3 mps 687 mmHg 62%
    Show more